Retour au catalogue

SL-16 DEB

ActifLEO
NORAD 18550·DEBRIS·🇷🇺 Russia

Lancé Mar 18, 1987 depuis Baikonur Cosmodrome

Loading…

Prochains Passages (prochaines 24 heures)

TLE

FraisSource: Space-Track

Époque: Sep 13, 2026, 16:26 UTC

1 18550U 87027F   26256.68529183  .00000101  00000-0  12511-3 0  9991
2 18550  71.0274 352.9458 0182796 310.8044  47.7325 13.79295737986184

Suivez SL-16 DEB en temps réel avec AllMySat

Download on the App Store